Flag for U.S.A. Weather past 2 weeks in Bryan – College Station, Texas, U.S.A.

Now
71 °F

Clear.


Feels Like: 74 °F
Forecast: 61 / 83 °F
Wind: 3 mph from South

Location: Easterwood Field

Current Time: Oct 25, 2014 at 10:12:56 PM

Latest Report: Oct 25, 2014 at 9:53 PM


Visibility: 10 mi

Pressure: 30.08 "Hg

Humidity: 71%

Dew point: 61 °F

Location of Bryan – College StationLocation

Historic Weather in Bryan – College Station — Graph

°F

Bryan – College Station temperature yesterday

Maximum temperature yesterday: 82 °F (at 4:53 PM)
Minimum temperature yesterday: 58 °F (at 7:53 AM)
Average temperature yesterday: 69 °F

Past Weeks' High & Low Weather Summary

 TemperatureHumidityPressure
High85 °F (Oct 15, 3:53 PM)97% (Oct 18, 5:53 AM)30.18 "Hg (Oct 18, 5:53 AM)
Low52 °F (Oct 14, 5:53 AM)26% (Oct 14, 4:53 PM)29.66 "Hg (Oct 13, 4:53 AM)
Average70 °F69%30.01 "Hg
* Reported Oct 10 8:53 PM — Oct 25 8:53 PM, Bryan – College Station, Weather by CustomWeather, © 2014

Note: Actual official high and low records may vary slightly from our data, if they occured in-between our weather recording intervals... More about our weather records

Advertising

Bryan – College Station weather history for previous 24 hours

 ConditionsComfort  
Time TempWeatherWind HumidityBarometerVisibility
8:53 PM
Oct 25
72 °FClear.No wind71%30.08 "Hg10 mi
7:53 PM75 °FClear.No wind66%30.07 "Hg10 mi
6:53 PM79 °FSunny.3 mph56%30.07 "Hg10 mi
5:53 PM83 °FSunny.5 mph46%30.07 "Hg10 mi
4:53 PM84 °FSunny.6 mph45%30.07 "Hg10 mi
3:53 PM85 °FSunny.6 mph45%30.08 "Hg10 mi
2:53 PM83 °FSunny.5 mph46%30.09 "Hg10 mi
1:53 PM83 °FSunny.7 mph46%30.11 "Hg10 mi
12:53 PM81 °FSunny.No wind47%30.14 "Hg10 mi
11:53 AM78 °FSunny.5 mph52%30.17 "Hg10 mi
10:53 AM75 °FSunny.7 mph60%30.18 "Hg10 mi
9:53 AM70 °FSunny.3 mph73%30.18 "Hg10 mi
8:53 AM65 °FSunny.No wind81%30.17 "Hg9 mi
7:53 AM60 °FClear.No wind86%30.15 "Hg8 mi
6:53 AM60 °FClear.No wind86%30.14 "Hg10 mi
5:53 AM61 °FClear.No wind83%30.13 "Hg10 mi
4:53 AM61 °FClear.No wind83%30.12 "Hg10 mi
3:53 AM62 °FClear.No wind80%30.12 "Hg10 mi
2:53 AM62 °FClear.3 mph80%30.11 "Hg10 mi
1:53 AM65 °FClear.3 mph73%30.12 "Hg10 mi
12:53 AM66 °FClear.3 mph73%30.12 "Hg10 mi
11:53 PM
Oct 24
67 °FClear.5 mph71%30.13 "Hg10 mi
10:53 PM68 °FClear.5 mph68%30.13 "Hg10 mi
Weather by CustomWeather, © 2014

See weather overviewHow to use our weather pages